Location: *
(47.8307°S, 178.3954°E)
Time: 06:51:23
(UTC+00:00)

Lacrosse 4 Rocket - Pass Details

Date: 12 August 2024
Orbit: 520 x 592 km, 68.0° (Epoch: 18 September)

Event Time Altitude Azimuth Distance (km) Brightness Sun altitude
Rises 18:20:24 0° 322° (NW) 2,783 4.7 -9.3°
Reaches altitude 10° 18:22:38 10° 320° (NW) 1,881 3.8 -8.9°
Maximum altitude 18:26:51 68° 236° (SW) 616 1.3 -8.3°
Drops below altitude 10° 18:31:00 10° 152° (SSE) 1,857 4.2 -7.6°
Sets 18:33:12 0° 149° (SSE) 2,746 5.1 -7.2°
